Location: Newark
(46.1292°N, 1.0086°W)
Time: 16:47:04
(UTC+00:00)

Transit 4A - Pass Details

Date: 18 November 2019
Orbit: 870 x 975 km, 66.8° (Epoch: 11 December)

Event Time Altitude Azimuth Distance (km) Brightness Sun altitude
Exits shadow 03:25:31 10° 10° (N) 2,558 10.4 -38.3°
Maximum altitude 03:25:32 10° 10° (N) 2,558 10.4 -38.3°
Drops below altitude 10° 03:26:30 10° 19° (NNE) 2,579 10.5 -38.2°
Sets 03:31:52 0° 60° (ENE) 3,491 11.8 -37.3°
